Regional Weather Roundup
Issued by NWS

Home | Current Version | Previous Version | Graphics & Text | Print | Product List | Glossary On
Versions: 1 2 3 4 5 6 7 8 9 10 11 12 13 14 15 16 17 18 19 20 21 22 23 24 25 26 27 28 29 30 31 32 33 34 35 36 37 38 39 40 41 42 43 44 45 46 47 48 49 50
844
ASUS44 KJAN 312303
RWRMS

MISSISSIPPI HOURLY WEATHER ROUNDUP
NATIONAL WEATHER SERVICE JACKSON MS
600 PM CDT SUN AUG 31 2014

NOTE: "FAIR: INDICATES FEW OR NO CLOUDS BELOW 12,000 FEET WITH NO
SIGNIFICANT WEATHER AND/OR OBSTRUCTIONS TO VISIBILITY.

MSZ001>002-007>008-010>013-018>021-025>028-034>036-010000-
NORTHWEST MISSISSIPPI

CITY           SKY/WX    TMP DP  RH WIND       PRES   REMARKS
CLARKSDALE     CLOUDY    82  77  83 CALM      30.01R HX  91
CLEVELAND      FAIR      81  78  88 SW3       30.01R THUNDER
GREENWOOD      PTSUNNY   85  75  72 S8        30.03S HX  93
GREENVILLE     PTSUNNY   85  76  74 S5        30.01R HX  94
GRENADA        FAIR      84  72  65 S5        30.03S
OLIVE BRANCH   MOSUNNY   84  79  84 SW10      30.00F HX  96
OXFORD         FAIR      81  72  74 S3        30.05S
TUNICA         CLEAR     88  72  58 SW12      30.00S HX  94
$$

MSZ003>006-009-014>017-022>024-029>033-037>039-010000-
NORTHEAST MISSISSIPPI

CITY           SKY/WX    TMP DP  RH WIND       PRES   REMARKS
BELMONT        MOCLDY    80  74  80 S6        30.06F
COLUMBUS AFB   CLOUDY    84  74  72 S5        30.05S HX  91
CORINTH        FAIR      84  72  65 SW13G20   30.03S
GOLDN TRIANGLE PTSUNNY   84  73  70 S7        30.05F HX  91
STARKVILLE     FAIR      81  75  83 CALM      30.04S
TUPELO         PTSUNNY   85  73  67 SW10      30.04F HX  91
$$

MSZ040-058-010000-
CENTRAL MISSISSIPPI

CITY           SKY/WX    TMP DP  RH WIND       PRES   REMARKS
JACKSON INTL   CLOUDY    85  76  74 S6        30.04S HX  94
JACKSON HAWKNS CLOUDY    85  75  72 S5        30.04S HX  93
MERIDIAN KEY   PTSUNNY   90  68  48 W3        30.04S HX  94
MERIDIAN NAS   PTSUNNY   86  74  67 NE5       30.05S HX  94
RAYMOND        FAIR      84  79  84 S3        30.04S HX  96
VICKSBURG      PTSUNNY   86  74  67 S8        30.02S HX  94
$$

MSZ059>079-010000-
SOUTH MISSISSIPPI

CITY           SKY/WX    TMP DP  RH WIND       PRES   REMARKS
BROOKHAVEN     FAIR      86  79  79 CALM      30.06S HAZE    HX  99
HATTIESBURG    MOSUNNY   91  69  48 SW9       30.04R HX  96
MCCOMB         MOSUNNY   87  68  52 S8        30.04S HX  90
NATCHEZ        PTSUNNY   84  75  74 SE5       30.03S HX  92
PINE BELT      PTSUNNY   90  68  48 SW6       30.06S HX  93
$$

MSZ080>082-010000-
COASTAL MISSISSIPPI

CITY           SKY/WX    TMP DP  RH WIND       PRES   REMARKS
BAY ST LOUIS   MOSUNNY  N/A N/A N/A S10       30.05R
BILOXI         SUNNY     87  76  69 S8        30.05S HX  98
PASCAGOULA     SUNNY     87  74  64 SE12      30.05S HX  95
GULFPORT       MOSUNNY   87  76  69 S10       30.04S HX  97
$$



USA.gov is the U.S. government's official web portal to all federal, state and local government web resources and services.